Flag for Slovenia Weather past 2 weeks in Maribor, Slovenia

Now
67 °F

Overcast.


Feels Like: 67 °F
Forecast: 62 / 80 °F
Wind: 2 mph from North

Location: Maribor / Slivnica

Current Time: Jul 28, 2014 at 9:38:40 AM

Latest Report: Jul 28, 2014 at 9:00 AM


Visibility: 8 mi

Pressure: 29.88 "Hg

Humidity: 91%

Dew point: 64 °F

Location of MariborLocation

Historic Weather in Maribor — Graph

°F

Maribor temperature yesterday

Maximum temperature yesterday: 76 °F (at 2:00 PM)
Minimum temperature yesterday: 62 °F (at 6:00 AM)
Average temperature yesterday: 68 °F

Past Weeks' High & Low Weather Summary

 TemperatureHumidityPressure
High88 °F (Jul 20, 5:00 PM)97% (Jul 14, 3:00 AM)30.10 "Hg (Jul 14, 3:00 AM)
Low55 °F (Jul 22, 5:00 AM)40% (Jul 18, 4:00 PM)29.74 "Hg (Jul 21, 8:00 AM)
Average71 °F73%29.93 "Hg
* Reported Jul 13 8:00 AM — Jul 28 8:00 AM, Maribor, Weather by CustomWeather, © 2014

Note: Actual official high and low records may vary slightly from our data, if they occured in-between our weather recording intervals... More about our weather records

Advertising

Maribor weather history for previous 24 hours

 ConditionsComfort  
Time TempWeatherWind HumidityBarometerVisibility
8:00 AM
Jul 28
67 °FOvercast.2 mph93%29.88 "Hg7 mi
7:00 AM65 °FOvercast.5 mph95%29.88 "Hg9 mi
6:00 AM65 °FOvercast.2 mph94%29.87 "Hg9 mi
5:00 AM65 °FMild.1 mph95%29.87 "Hg5 mi
4:00 AM65 °FRain. Overcast.1 mph96%29.87 "Hg3 mi
3:00 AM65 °FRain. Overcast.1 mph95%29.88 "Hg3 mi
2:00 AM64 °FDrizzle. Overcast.2 mph95%29.89 "Hg4 mi
1:00 AM65 °FRain. Overcast.3 mph92%29.91 "Hg4 mi
12:00 AM66 °FFog.1 mph85%29.90 "Hg5 mi
11:00 PM
Jul 27
67 °FFog.1 mph83%29.90 "Hg7 mi
10:00 PM66 °FPassing clouds.3 mph83%29.90 "Hg12 mi
9:00 PM68 °FPassing clouds.5 mph78%29.90 "Hg12 mi
8:00 PM71 °FScattered clouds.5 mph70%29.87 "Hg12 mi
7:00 PM72 °FScattered clouds.5 mph71%29.86 "Hg12 mi
6:00 PM73 °FPartly sunny.7 mph72%29.87 "Hg12 mi
5:00 PM73 °FPartly sunny.9 mph75%29.88 "Hg12 mi
4:00 PM72 °FPartly sunny.8 mph83%29.89 "Hg12 mi
3:00 PM71 °FSprinkles. Overcast.6 mph81%29.90 "Hg7 mi
2:00 PM76 °FPartly sunny.3 mph67%29.89 "Hg12 mi
1:00 PM74 °FPartly sunny.3 mph68%29.89 "Hg16 mi
12:00 PM74 °FPartly sunny.3 mph73%29.90 "Hg12 mi
11:00 AM70 °FOvercast.2 mph86%29.91 "Hg6 mi
10:00 AM65 °FOvercast.2 mph92%29.92 "Hg4 mi
9:00 AM64 °FRain showers. Cloudy.2 mph92%29.91 "Hg3 mi
Weather by CustomWeather, © 2014

See weather overviewHow to use our weather pages